M I D A S
Marine Information and Data Acquisition System
Tripno 1338 of the Zeeleeuw from 2007-07-05 06:31:09 to 2007-07-05 15:53:31
Back to CruiseResearch ActivitiesStationsMapUnderway DataData graphs

EquipmentUnitsComment
TimeDGPSUTC
LatitudeDGPSDM.mWGS84
LongitudeDGPSDM.mWGS84
TemperatureSBE03/SBE38deg celciusITS90
ConductivitySBE21S/mITS90
SalinitySBE21 Practical Salinity Units
ChlorophylAChelsea fluorimeterg/lCalibrated in Aceton
Missing or incorrect values are displayed as -999
Sea surface data collected by the RV Zeeleeuw from 2007-07-05 06:31:52 to 2007-07-05 16:04:38
Time Latitude Longitude Temperature Conductivity Salinity ChlorophylA
2007-07-05 06:32:57 51°13.615 2°56.033 -999 -999 -999 -999
2007-07-05 06:33:57 51°13.655 2°55.934 -999 -999 -999 -999
2007-07-05 06:34:57 51°13.692 2°55.835 -999 -999 -999 -999
2007-07-05 06:35:58 51°13.704 2°55.756 -999 -999 -999 -999
2007-07-05 06:36:57 51°13.706 2°55.768 -999 -999 -999 -999
2007-07-05 06:37:57 51°13.704 2°55.764 -999 -999 -999 -999
2007-07-05 06:38:57 51°13.773 2°55.702 -999 -999 -999 -999
2007-07-05 06:39:57 51°13.894 2°55.587 -999 -999 -999 -999
2007-07-05 06:40:57 51°14.045 2°55.484 -999 -999 -999 -999
2007-07-05 06:41:57 51°14.191 2°55.356 -999 -999 -999 -999
2007-07-05 06:42:57 51°14.314 2°55.174 -999 -999 -999 -999
2007-07-05 06:43:57 51°14.439 2°54.96 -999 -999 -999 -999
2007-07-05 06:44:57 51°14.601 2°54.772 -999 -999 -999 -999
2007-07-05 06:45:57 51°14.764 2°54.6 -999 -999 -999 -999
2007-07-05 06:46:57 51°14.927 2°54.429 -999 -999 -999 -999
2007-07-05 06:47:57 51°15.093 2°54.259 -999 -999 -999 -999
2007-07-05 06:48:57 51°15.254 2°54.091 -999 -999 -999 -999
2007-07-05 06:49:57 51°15.418 2°53.909 -999 -999 -999 -999
2007-07-05 06:50:57 51°15.582 2°53.738 -999 -999 -999 -999
2007-07-05 06:51:57 51°15.737 2°53.577 -999 -999 -999 -999
2007-07-05 06:52:57 51°15.897 2°53.404 -999 -999 -999 -999
2007-07-05 06:53:57 51°16.064 2°53.22 -999 -999 -999 -999
2007-07-05 06:54:57 51°16.24 2°53.053 -999 -999 -999 -999
2007-07-05 06:55:57 51°16.419 2°52.924 -999 -999 -999 -999
2007-07-05 06:56:57 51°16.596 2°52.782 -999 -999 -999 -999
2007-07-05 06:57:57 51°16.787 2°52.667 -999 -999 -999 -999
2007-07-05 06:58:57 51°16.981 2°52.623 -999 -999 -999 -999
2007-07-05 06:59:57 51°17.182 2°52.57 -999 -999 -999 -999
2007-07-05 07:00:57 51°17.387 2°52.515 -999 -999 -999 -999
2007-07-05 07:01:57 51°17.591 2°52.462 -999 -999 -999 -999
2007-07-05 07:02:57 51°17.8 2°52.443 -999 -999 -999 -999
2007-07-05 07:03:57 51°18.007 2°52.512 -999 -999 -999 -999
2007-07-05 07:04:57 51°18.182 2°52.703 -999 -999 -999 -999
2007-07-05 07:05:57 51°18.277 2°53.003 -999 -999 -999 -999
2007-07-05 07:06:57 51°18.367 2°53.31 -999 -999 -999 -999
2007-07-05 07:07:57 51°18.471 2°53.607 -999 -999 -999 -999
2007-07-05 07:08:57 51°18.568 2°53.909 -999 -999 -999 -999
2007-07-05 07:09:57 51°18.662 2°54.215 -999 -999 -999 -999
2007-07-05 07:10:57 51°18.753 2°54.52 -999 -999 -999 -999
2007-07-05 07:11:57 51°18.849 2°54.826 -999 -999 -999 -999
2007-07-05 07:12:57 51°18.933 2°55.135 -999 -999 -999 -999
2007-07-05 07:13:57 51°19.022 2°55.448 -999 -999 -999 -999
2007-07-05 07:14:57 51°19.109 2°55.759 -999 -999 -999 -999
2007-07-05 07:15:57 51°19.195 2°56.069 -999 -999 -999 -999
2007-07-05 07:16:57 51°19.28 2°56.38 -999 -999 -999 -999
2007-07-05 07:17:57 51°19.367 2°56.686 -999 -999 -999 -999
2007-07-05 07:18:57 51°19.453 2°56.994 -999 -999 -999 -999
2007-07-05 07:19:57 51°19.54 2°57.303 -999 -999 -999 -999
2007-07-05 07:20:57 51°19.629 2°57.607 -999 -999 -999 -999
2007-07-05 07:21:57 51°19.712 2°57.913 -999 -999 -999 -999
2007-07-05 07:22:57 51°19.798 2°58.221 -999 -999 -999 -999
2007-07-05 07:23:58 51°19.884 2°58.533 -999 -999 -999 -999
2007-07-05 07:24:57 51°19.968 2°58.836 -999 -999 -999 -999
2007-07-05 07:25:57 51°20.058 2°59.144 -999 -999 -999 -999
2007-07-05 07:26:57 51°20.147 2°59.454 -999 -999 -999 -999
2007-07-05 07:27:57 51°20.231 2°59.761 -999 -999 -999 -999
2007-07-05 07:28:57 51°20.313 3°0.074 -999 -999 -999 -999
2007-07-05 07:29:57 51°20.389 3°0.385 -999 -999 -999 -999
2007-07-05 07:30:57 51°20.467 3°0.696 -999 -999 -999 -999
2007-07-05 07:31:57 51°20.55 3°1.001 -999 -999 -999 -999
2007-07-05 07:32:57 51°20.631 3°1.305 -999 -999 -999 -999
2007-07-05 07:33:57 51°20.713 3°1.611 -999 -999 -999 -999
2007-07-05 07:34:57 51°20.785 3°1.926 -999 -999 -999 -999
2007-07-05 07:35:57 51°20.847 3°2.242 -999 -999 -999 -999
2007-07-05 07:36:57 51°20.922 3°2.549 -999 -999 -999 -999
2007-07-05 07:37:57 51°20.993 3°2.863 -999 -999 -999 -999
2007-07-05 07:38:57 51°21.06 3°3.177 -999 -999 -999 -999
2007-07-05 07:39:57 51°21.127 3°3.491 -999 -999 -999 -999
2007-07-05 07:40:57 51°21.198 3°3.803 -999 -999 -999 -999
2007-07-05 07:41:57 51°21.26 3°4.116 -999 -999 -999 -999
2007-07-05 07:42:57 51°21.329 3°4.43 -999 -999 -999 -999
2007-07-05 07:43:57 51°21.396 3°4.743 -999 -999 -999 -999
2007-07-05 07:44:57 51°21.463 3°5.052 -999 -999 -999 -999
2007-07-05 07:45:57 51°21.53 3°5.356 -999 -999 -999 -999
2007-07-05 07:46:58 51°21.6 3°5.668 -999 -999 -999 -999
2007-07-05 07:47:57 51°21.67 3°5.968 -999 -999 -999 -999
2007-07-05 07:48:57 51°21.736 3°6.276 -999 -999 -999 -999
2007-07-05 07:49:57 51°21.803 3°6.578 -999 -999 -999 -999
2007-07-05 07:50:57 51°21.86 3°6.883 -999 -999 -999 -999
2007-07-05 07:51:57 51°21.911 3°7.192 -999 -999 -999 -999
2007-07-05 07:52:57 51°21.942 3°7.507 -999 -999 -999 -999
2007-07-05 07:53:57 51°21.983 3°7.817 -999 -999 -999 -999
2007-07-05 07:54:57 51°22.026 3°8.127 -999 -999 -999 -999
2007-07-05 07:55:58 51°22.056 3°8.443 -999 -999 -999 -999
2007-07-05 07:56:57 51°22.09 3°8.737 -999 -999 -999 -999
2007-07-05 07:57:58 51°22.126 3°9.036 -999 -999 -999 -999
2007-07-05 07:58:57 51°22.164 3°9.323 -999 -999 -999 -999
2007-07-05 07:59:57 51°22.151 3°9.609 -999 -999 -999 -999
2007-07-05 08:00:57 51°22.183 3°9.879 -999 -999 -999 -999
2007-07-05 08:01:57 51°22.253 3°10.143 -999 -999 -999 -999
2007-07-05 08:02:58 51°22.285 3°10.429 -999 -999 -999 -999
2007-07-05 08:03:57 51°22.32 3°10.713 -999 -999 -999 -999
2007-07-05 08:04:58 51°22.359 3°11.011 -999 -999 -999 -999
2007-07-05 08:05:57 51°22.394 3°11.291 -999 -999 -999 -999
2007-07-05 08:06:57 51°22.427 3°11.576 -999 -999 -999 -999
2007-07-05 08:07:57 51°22.463 3°11.862 -999 -999 -999 -999
2007-07-05 08:08:57 51°22.501 3°12.15 -999 -999 -999 -999
2007-07-05 08:09:57 51°22.53 3°12.447 -999 -999 -999 -999
2007-07-05 08:10:57 51°22.555 3°12.731 -999 -999 -999 -999
2007-07-05 08:11:57 51°22.573 3°12.956 -999 -999 -999 -999
2007-07-05 08:12:57 51°22.588 3°13.087 -999 -999 -999 -999
2007-07-05 08:13:58 51°22.599 3°13.163 -999 -999 -999 -999
2007-07-05 08:14:57 51°22.609 3°13.206 -999 -999 -999 -999
2007-07-05 08:15:57 51°22.606 3°13.202 -999 -999 -999 -999
2007-07-05 08:16:57 51°22.601 3°13.184 -999 -999 -999 -999
2007-07-05 08:17:57 51°22.596 3°13.168 -999 -999 -999 -999
2007-07-05 08:18:58 51°22.589 3°13.149 -999 -999 -999 -999
2007-07-05 08:19:57 51°22.581 3°13.133 -999 -999 -999 -999
2007-07-05 08:20:57 51°22.572 3°13.113 -999 -999 -999 -999
2007-07-05 08:21:57 51°22.563 3°13.096 -999 -999 -999 -999
2007-07-05 08:22:58 51°22.553 3°13.076 -999 -999 -999 -999
2007-07-05 08:23:57 51°22.545 3°13.057 -999 -999 -999 -999
2007-07-05 08:24:57 51°22.536 3°13.039 -999 -999 -999 -999
2007-07-05 08:25:57 51°22.529 3°13.019 -999 -999 -999 -999
2007-07-05 08:26:57 51°22.521 3°12.997 -999 -999 -999 -999
2007-07-05 08:27:57 51°22.53 3°12.99 -999 -999 -999 -999
2007-07-05 08:28:57 51°22.575 3°13.103 -999 -999 -999 -999
2007-07-05 08:29:58 51°22.608 3°13.213 -999 -999 -999 -999
2007-07-05 08:30:57 51°22.623 3°13.224 -999 -999 -999 -999
2007-07-05 08:31:57 51°22.632 3°13.203 -999 -999 -999 -999
2007-07-05 08:32:57 51°22.636 3°13.176 -999 -999 -999 -999
2007-07-05 08:33:57 51°22.637 3°13.151 -999 -999 -999 -999
2007-07-05 08:34:58 51°22.634 3°13.128 -999 -999 -999 -999
2007-07-05 08:35:57 51°22.63 3°13.104 -999 -999 -999 -999
2007-07-05 08:36:58 51°22.624 3°13.078 -999 -999 -999 -999
2007-07-05 08:37:57 51°22.619 3°13.053 -999 -999 -999 -999
2007-07-05 08:38:58 51°22.614 3°13.027 -999 -999 -999 -999
2007-07-05 08:39:57 51°22.611 3°13.003 -999 -999 -999 -999
2007-07-05 08:40:57 51°22.607 3°12.979 -999 -999 -999 -999
2007-07-05 08:41:57 51°22.601 3°12.958 -999 -999 -999 -999
2007-07-05 08:42:58 51°22.597 3°12.937 -999 -999 -999 -999
2007-07-05 08:43:58 51°22.592 3°12.916 -999 -999 -999 -999
2007-07-05 08:44:57 51°22.589 3°12.897 -999 -999 -999 -999
2007-07-05 08:45:58 51°22.588 3°12.878 -999 -999 -999 -999
2007-07-05 08:46:57 51°22.612 3°12.854 -999 -999 -999 -999
2007-07-05 08:47:57 51°22.643 3°12.792 -999 -999 -999 -999
2007-07-05 08:48:58 51°22.643 3°12.695 -999 -999 -999 -999
2007-07-05 08:49:58 51°22.619 3°12.579 -999 -999 -999 -999
2007-07-05 08:50:58 51°22.6 3°12.455 -999 -999 -999 -999
2007-07-05 08:51:58 51°22.584 3°12.331 -999 -999 -999 -999
2007-07-05 08:52:58 51°22.572 3°12.198 -999 -999 -999 -999
2007-07-05 08:53:57 51°22.56 3°12.066 -999 -999 -999 -999
2007-07-05 08:54:58 51°22.544 3°11.933 -999 -999 -999 -999
2007-07-05 08:55:57 51°22.53 3°11.803 -999 -999 -999 -999
2007-07-05 08:56:58 51°22.517 3°11.66 -999 -999 -999 -999
2007-07-05 08:57:57 51°22.498 3°11.525 -999 -999 -999 -999
2007-07-05 08:58:58 51°22.476 3°11.387 -999 -999 -999 -999
2007-07-05 08:59:58 51°22.452 3°11.253 -999 -999 -999 -999
2007-07-05 09:00:58 51°22.428 3°11.115 -999 -999 -999 -999
2007-07-05 09:01:58 51°22.404 3°10.967 -999 -999 -999 -999
2007-07-05 09:02:57 51°22.379 3°10.825 -999 -999 -999 -999
2007-07-05 09:03:58 51°22.351 3°10.68 -999 -999 -999 -999
2007-07-05 09:04:57 51°22.32 3°10.543 -999 -999 -999 -999
2007-07-05 09:05:58 51°22.289 3°10.415 -999 -999 -999 -999
2007-07-05 09:06:58 51°22.264 3°10.285 -999 -999 -999 -999
2007-07-05 09:07:57 51°22.245 3°10.166 -999 -999 -999 -999
2007-07-05 09:08:58 51°22.226 3°10.047 -999 -999 -999 -999
2007-07-05 09:09:57 51°22.205 3°9.927 -999 -999 -999 -999
2007-07-05 09:10:58 51°22.186 3°9.801 -999 -999 -999 -999
2007-07-05 09:11:58 51°22.163 3°9.69 -999 -999 -999 -999
2007-07-05 09:12:58 51°22.149 3°9.566 -999 -999 -999 -999
2007-07-05 09:13:58 51°22.14 3°9.435 -999 -999 -999 -999
2007-07-05 09:14:57 51°22.128 3°9.322 -999 -999 -999 -999
2007-07-05 09:15:58 51°22.112 3°9.207 -999 -999 -999 -999
2007-07-05 09:16:57 51°22.101 3°9.091 -999 -999 -999 -999
2007-07-05 09:17:58 51°22.092 3°8.981 -999 -999 -999 -999
2007-07-05 09:18:57 51°22.079 3°8.874 -999 -999 -999 -999
2007-07-05 09:19:58 51°22.071 3°8.751 -999 -999 -999 -999
2007-07-05 09:20:57 51°22.066 3°8.623 -999 -999 -999 -999
2007-07-05 09:21:58 51°22.06 3°8.489 -999 -999 -999 -999
2007-07-05 09:22:57 51°22.051 3°8.37 -999 -999 -999 -999
2007-07-05 09:23:57 51°22.041 3°8.249 -999 -999 -999 -999
2007-07-05 09:24:58 51°22.033 3°8.122 -999 -999 -999 -999
2007-07-05 09:25:57 51°22.025 3°7.993 -999 -999 -999 -999
2007-07-05 09:26:58 51°22.019 3°7.857 -999 -999 -999 -999
2007-07-05 09:27:57 51°22.012 3°7.73 -999 -999 -999 -999
2007-07-05 09:28:58 51°22.002 3°7.609 -999 -999 -999 -999
2007-07-05 09:29:57 51°21.994 3°7.496 -999 -999 -999 -999
2007-07-05 09:30:58 51°21.984 3°7.377 -999 -999 -999 -999
2007-07-05 09:31:58 51°21.98 3°7.249 -999 -999 -999 -999
2007-07-05 09:32:57 51°21.979 3°7.117 -999 -999 -999 -999
2007-07-05 09:33:58 51°21.974 3°6.984 -999 -999 -999 -999
2007-07-05 09:34:57 51°21.966 3°6.865 -999 -999 -999 -999
2007-07-05 09:35:58 51°21.96 3°6.744 -999 -999 -999 -999
2007-07-05 09:36:58 51°21.956 3°6.616 -999 -999 -999 -999
2007-07-05 09:37:58 51°21.947 3°6.49 -999 -999 -999 -999
2007-07-05 09:38:58 51°21.937 3°6.367 -999 -999 -999 -999
2007-07-05 09:39:58 51°21.925 3°6.245 -999 -999 -999 -999
2007-07-05 09:40:58 51°21.917 3°6.08 -999 -999 -999 -999
2007-07-05 09:41:58 51°21.902 3°5.793 -999 -999 -999 -999
2007-07-05 09:42:58 51°21.852 3°5.448 -999 -999 -999 -999
2007-07-05 09:43:58 51°21.776 3°5.106 -999 -999 -999 -999
2007-07-05 09:44:58 51°21.7 3°4.767 -999 -999 -999 -999
2007-07-05 09:45:57 51°21.624 3°4.434 -999 -999 -999 -999
2007-07-05 09:46:58 51°21.544 3°4.088 -999 -999 -999 -999
2007-07-05 09:47:58 51°21.467 3°3.749 -999 -999 -999 -999
2007-07-05 09:48:58 51°21.376 3°3.42 -999 -999 -999 -999
2007-07-05 09:49:58 51°21.275 3°3.109 -999 -999 -999 -999
2007-07-05 09:50:58 51°21.174 3°2.797 -999 -999 -999 -999
2007-07-05 09:51:58 51°21.073 3°2.48 -999 -999 -999 -999
2007-07-05 09:52:57 51°20.973 3°2.166 -999 -999 -999 -999
2007-07-05 09:53:58 51°20.871 3°1.836 -999 -999 -999 -999
2007-07-05 09:54:58 51°20.769 3°1.513 -999 -999 -999 -999
2007-07-05 09:55:58 51°20.667 3°1.196 -999 -999 -999 -999
2007-07-05 09:56:58 51°20.565 3°0.882 -999 -999 -999 -999
2007-07-05 09:57:58 51°20.464 3°0.566 -999 -999 -999 -999
2007-07-05 09:58:58 51°20.361 3°0.253 -999 -999 -999 -999
2007-07-05 09:59:58 51°20.261 2°59.941 -999 -999 -999 -999
2007-07-05 10:00:58 51°20.16 2°59.625 -999 -999 -999 -999
2007-07-05 10:01:58 51°20.057 2°59.307 -999 -999 -999 -999
2007-07-05 10:02:58 51°19.954 2°58.99 -999 -999 -999 -999
2007-07-05 10:03:58 51°19.851 2°58.677 -999 -999 -999 -999
2007-07-05 10:04:58 51°19.749 2°58.358 -999 -999 -999 -999
2007-07-05 10:05:58 51°19.644 2°58.041 -999 -999 -999 -999
2007-07-05 10:06:57 51°19.548 2°57.722 -999 -999 -999 -999
2007-07-05 10:07:58 51°19.448 2°57.396 -999 -999 -999 -999
2007-07-05 10:08:57 51°19.349 2°57.09 -999 -999 -999 -999
2007-07-05 10:09:58 51°19.253 2°56.761 -999 -999 -999 -999
2007-07-05 10:10:58 51°19.161 2°56.434 -999 -999 -999 -999
2007-07-05 10:11:58 51°19.068 2°56.108 -999 -999 -999 -999
2007-07-05 10:12:58 51°18.975 2°55.78 -999 -999 -999 -999
2007-07-05 10:13:58 51°18.881 2°55.454 -999 -999 -999 -999
2007-07-05 10:14:58 51°18.787 2°55.128 -999 -999 -999 -999
2007-07-05 10:15:58 51°18.692 2°54.808 -999 -999 -999 -999
2007-07-05 10:16:58 51°18.596 2°54.484 -999 -999 -999 -999
2007-07-05 10:17:58 51°18.5 2°54.169 -999 -999 -999 -999
2007-07-05 10:18:58 51°18.405 2°53.859 -999 -999 -999 -999
2007-07-05 10:19:58 51°18.313 2°53.542 -999 -999 -999 -999
2007-07-05 10:20:58 51°18.225 2°53.226 -999 -999 -999 -999
2007-07-05 10:21:58 51°18.149 2°52.9 -999 -999 -999 -999
2007-07-05 10:22:58 51°18.049 2°52.59 -999 -999 -999 -999
2007-07-05 10:23:58 51°17.839 2°52.499 -999 -999 -999 -999
2007-07-05 10:24:57 51°17.618 2°52.544 -999 -999 -999 -999
2007-07-05 10:25:58 51°17.391 2°52.604 -999 -999 -999 -999
2007-07-05 10:26:58 51°17.173 2°52.704 -999 -999 -999 -999
2007-07-05 10:27:58 51°17.003 2°52.921 -999 -999 -999 -999
2007-07-05 10:28:58 51°16.881 2°53.183 -999 -999 -999 -999
2007-07-05 10:29:58 51°16.804 2°53.493 -999 -999 -999 -999
2007-07-05 10:30:58 51°16.805 2°53.813 -999 -999 -999 -999
2007-07-05 10:31:58 51°16.864 2°54.113 -999 -999 -999 -999
2007-07-05 10:32:58 51°16.947 2°54.399 -999 -999 -999 -999
2007-07-05 10:33:58 51°17.015 2°54.695 -999 -999 -999 -999
2007-07-05 10:34:58 51°17.092 2°54.978 -999 -999 -999 -999
2007-07-05 10:35:58 51°17.163 2°55.269 -999 -999 -999 -999
2007-07-05 10:36:58 51°17.236 2°55.56 -999 -999 -999 -999
2007-07-05 10:37:58 51°17.306 2°55.846 -999 -999 -999 -999
2007-07-05 10:38:58 51°17.376 2°56.128 -999 -999 -999 -999
2007-07-05 10:39:58 51°17.457 2°56.401 -999 -999 -999 -999
2007-07-05 10:40:58 51°17.54 2°56.671 -999 -999 -999 -999
2007-07-05 10:41:58 51°17.624 2°56.937 -999 -999 -999 -999
2007-07-05 10:42:58 51°17.71 2°57.207 -999 -999 -999 -999
2007-07-05 10:43:58 51°17.79 2°57.484 -999 -999 -999 -999
2007-07-05 10:44:58 51°17.872 2°57.755 -999 -999 -999 -999
2007-07-05 10:45:58 51°17.953 2°58.027 -999 -999 -999 -999
2007-07-05 10:46:58 51°18.037 2°58.297 -999 -999 -999 -999
2007-07-05 10:47:58 51°18.123 2°58.57 -999 -999 -999 -999
2007-07-05 10:48:58 51°18.199 2°58.848 -999 -999 -999 -999
2007-07-05 10:49:58 51°18.285 2°59.122 -999 -999 -999 -999
2007-07-05 10:50:58 51°18.371 2°59.399 -999 -999 -999 -999
2007-07-05 10:51:58 51°18.455 2°59.675 -999 -999 -999 -999
2007-07-05 10:52:58 51°18.539 2°59.949 -999 -999 -999 -999
2007-07-05 10:53:58 51°18.621 3°0.225 -999 -999 -999 -999
2007-07-05 10:54:58 51°18.704 3°0.5 -999 -999 -999 -999
2007-07-05 10:55:58 51°18.773 3°0.784 -999 -999 -999 -999
2007-07-05 10:56:58 51°18.839 3°1.072 -999 -999 -999 -999
2007-07-05 10:57:58 51°18.899 3°1.362 -999 -999 -999 -999
2007-07-05 10:58:58 51°18.959 3°1.655 -999 -999 -999 -999
2007-07-05 10:59:58 51°19.011 3°1.933 -999 -999 -999 -999
2007-07-05 11:00:58 51°19.048 3°2.148 -999 -999 -999 -999
2007-07-05 11:01:58 51°19.081 3°2.337 -999 -999 -999 -999
2007-07-05 11:02:58 51°19.119 3°2.517 -999 -999 -999 -999
2007-07-05 11:03:58 51°19.154 3°2.693 -999 -999 -999 -999
2007-07-05 11:04:58 51°19.18 3°2.824 -999 -999 -999 -999
2007-07-05 11:05:58 51°19.186 3°2.843 -999 -999 -999 -999
2007-07-05 11:06:58 51°19.179 3°2.83 -999 -999 -999 -999
2007-07-05 11:07:58 51°19.167 3°2.818 -999 -999 -999 -999
2007-07-05 11:08:58 51°19.152 3°2.807 -999 -999 -999 -999
2007-07-05 11:09:58 51°19.136 3°2.797 -999 -999 -999 -999
2007-07-05 11:10:58 51°19.119 3°2.786 -999 -999 -999 -999
2007-07-05 11:11:58 51°19.102 3°2.775 -999 -999 -999 -999
2007-07-05 11:12:58 51°19.083 3°2.765 -999 -999 -999 -999
2007-07-05 11:13:58 51°19.065 3°2.754 -999 -999 -999 -999
2007-07-05 11:14:58 51°19.047 3°2.744 -999 -999 -999 -999
2007-07-05 11:15:58 51°19.029 3°2.732 -999 -999 -999 -999
2007-07-05 11:16:58 51°19.013 3°2.722 -999 -999 -999 -999
2007-07-05 11:17:58 51°18.996 3°2.713 -999 -999 -999 -999
2007-07-05 11:18:58 51°18.981 3°2.704 -999 -999 -999 -999
2007-07-05 11:19:58 51°18.964 3°2.694 -999 -999 -999 -999
2007-07-05 11:20:58 51°18.948 3°2.684 -999 -999 -999 -999
2007-07-05 11:21:58 51°18.933 3°2.676 -999 -999 -999 -999
2007-07-05 11:22:58 51°18.917 3°2.666 -999 -999 -999 -999
2007-07-05 11:23:58 51°18.902 3°2.658 -999 -999 -999 -999
2007-07-05 11:24:58 51°18.886 3°2.647 -999 -999 -999 -999
2007-07-05 11:25:58 51°18.869 3°2.639 -999 -999 -999 -999
2007-07-05 11:26:58 51°18.851 3°2.628 -999 -999 -999 -999
2007-07-05 11:27:58 51°18.831 3°2.616 -999 -999 -999 -999
2007-07-05 11:28:58 51°18.813 3°2.605 -999 -999 -999 -999
2007-07-05 11:29:58 51°18.797 3°2.594 -999 -999 -999 -999
2007-07-05 11:30:58 51°18.781 3°2.583 -999 -999 -999 -999
2007-07-05 11:31:58 51°18.766 3°2.574 -999 -999 -999 -999
2007-07-05 11:32:58 51°18.76 3°2.568 -999 -999 -999 -999
2007-07-05 11:33:58 51°18.783 3°2.575 -999 -999 -999 -999
2007-07-05 11:34:58 51°18.82 3°2.582 -999 -999 -999 -999
2007-07-05 11:35:58 51°18.862 3°2.596 -999 -999 -999 -999
2007-07-05 11:36:58 51°18.903 3°2.629 -999 -999 -999 -999
2007-07-05 11:37:58 51°18.942 3°2.672 -999 -999 -999 -999
2007-07-05 11:38:58 51°18.978 3°2.719 -999 -999 -999 -999
2007-07-05 11:39:58 51°19.014 3°2.765 -999 -999 -999 -999
2007-07-05 11:40:58 51°19.055 3°2.806 -999 -999 -999 -999
2007-07-05 11:41:58 51°19.137 3°2.907 -999 -999 -999 -999
2007-07-05 11:42:58 51°19.242 3°3.036 -999 -999 -999 -999
2007-07-05 11:43:58 51°19.352 3°3.166 -999 -999 -999 -999
2007-07-05 11:44:58 51°19.419 3°3.203 -999 -999 -999 -999
2007-07-05 11:45:58 51°19.422 3°3.186 -999 -999 -999 -999
2007-07-05 11:46:58 51°19.416 3°3.172 -999 -999 -999 -999
2007-07-05 11:47:58 51°19.405 3°3.165 -999 -999 -999 -999
2007-07-05 11:48:58 51°19.39 3°3.159 -999 -999 -999 -999
2007-07-05 11:49:58 51°19.374 3°3.15 -999 -999 -999 -999
2007-07-05 11:50:58 51°19.358 3°3.143 -999 -999 -999 -999
2007-07-05 11:51:58 51°19.343 3°3.134 -999 -999 -999 -999
2007-07-05 11:52:58 51°19.347 3°3.128 -999 -999 -999 -999
2007-07-05 11:53:58 51°19.387 3°3.093 -999 -999 -999 -999
2007-07-05 11:54:58 51°19.445 3°3.054 -999 -999 -999 -999
2007-07-05 11:55:58 51°19.499 3°3.005 -999 -999 -999 -999
2007-07-05 11:56:58 51°19.513 3°2.975 -999 -999 -999 -999
2007-07-05 11:57:58 51°19.514 3°2.956 -999 -999 -999 -999
2007-07-05 11:58:58 51°19.508 3°2.944 -999 -999 -999 -999
2007-07-05 11:59:58 51°19.497 3°2.936 -999 -999 -999 -999
2007-07-05 12:00:58 51°19.483 3°2.928 -999 -999 -999 -999
2007-07-05 12:01:58 51°19.468 3°2.92 -999 -999 -999 -999
2007-07-05 12:02:58 51°19.452 3°2.91 -999 -999 -999 -999
2007-07-05 12:03:58 51°19.436 3°2.903 -999 -999 -999 -999
2007-07-05 12:04:58 51°19.419 3°2.896 -999 -999 -999 -999
2007-07-05 12:05:58 51°19.401 3°2.891 -999 -999 -999 -999
2007-07-05 12:06:58 51°19.385 3°2.882 -999 -999 -999 -999
2007-07-05 12:07:58 51°19.395 3°2.883 -999 -999 -999 -999
2007-07-05 12:08:58 51°19.445 3°2.893 -999 -999 -999 -999
2007-07-05 12:09:58 51°19.469 3°2.979 -999 -999 -999 -999
2007-07-05 12:10:58 51°19.49 3°3.02 -999 -999 -999 -999
2007-07-05 12:11:58 51°19.498 3°3.023 -999 -999 -999 -999
2007-07-05 12:12:58 51°19.497 3°3.015 -999 -999 -999 -999
2007-07-05 12:13:58 51°19.489 3°3.005 -999 -999 -999 -999
2007-07-05 12:14:58 51°19.478 3°2.996 -999 -999 -999 -999
2007-07-05 12:15:58 51°19.467 3°2.987 -999 -999 -999 -999
2007-07-05 12:16:58 51°19.452 3°2.982 -999 -999 -999 -999
2007-07-05 12:17:58 51°19.436 3°2.976 -999 -999 -999 -999
2007-07-05 12:18:58 51°19.417 3°2.971 -999 -999 -999 -999
2007-07-05 12:19:58 51°19.407 3°2.966 -999 -999 -999 -999
2007-07-05 12:20:58 51°19.421 3°2.944 -999 -999 -999 -999
2007-07-05 12:21:58 51°19.429 3°2.868 -999 -999 -999 -999
2007-07-05 12:22:58 51°19.385 3°2.754 -999 -999 -999 -999
2007-07-05 12:23:58 51°19.338 3°2.602 -999 -999 -999 -999
2007-07-05 12:24:58 51°19.29 3°2.436 -999 -999 -999 -999
2007-07-05 12:25:58 51°19.241 3°2.269 -999 -999 -999 -999
2007-07-05 12:26:58 51°19.196 3°2.124 -999 -999 -999 -999
2007-07-05 12:27:58 51°19.16 3°2.01 -999 -999 -999 -999
2007-07-05 12:28:58 51°19.125 3°1.903 -999 -999 -999 -999
2007-07-05 12:29:58 51°19.092 3°1.801 -999 -999 -999 -999
2007-07-05 12:30:58 51°19.058 3°1.702 -999 -999 -999 -999
2007-07-05 12:31:58 51°19.024 3°1.602 -999 -999 -999 -999
2007-07-05 12:32:58 51°18.991 3°1.504 -999 -999 -999 -999
2007-07-05 12:33:58 51°18.959 3°1.41 -999 -999 -999 -999
2007-07-05 12:34:58 51°18.925 3°1.317 -999 -999 -999 -999
2007-07-05 12:35:58 51°18.894 3°1.217 -999 -999 -999 -999
2007-07-05 12:36:58 51°18.862 3°1.12 -999 -999 -999 -999
2007-07-05 12:37:58 51°18.831 3°1.026 -999 -999 -999 -999
2007-07-05 12:38:58 51°18.803 3°0.929 -999 -999 -999 -999
2007-07-05 12:39:58 51°18.779 3°0.828 -999 -999 -999 -999
2007-07-05 12:40:58 51°18.755 3°0.726 -999 -999 -999 -999
2007-07-05 12:41:58 51°18.733 3°0.63 -999 -999 -999 -999
2007-07-05 12:42:58 51°18.712 3°0.538 -999 -999 -999 -999
2007-07-05 12:43:58 51°18.687 3°0.446 -999 -999 -999 -999
2007-07-05 12:44:58 51°18.657 3°0.35 -999 -999 -999 -999
2007-07-05 12:45:58 51°18.629 3°0.255 -999 -999 -999 -999
2007-07-05 12:46:58 51°18.602 3°0.158 -999 -999 -999 -999
2007-07-05 12:47:58 51°18.573 3°0.067 -999 -999 -999 -999
2007-07-05 12:48:58 51°18.545 2°59.973 -999 -999 -999 -999
2007-07-05 12:49:58 51°18.516 2°59.882 -999 -999 -999 -999
2007-07-05 12:50:58 51°18.487 2°59.801 -999 -999 -999 -999
2007-07-05 12:51:58 51°18.462 2°59.721 -999 -999 -999 -999
2007-07-05 12:52:58 51°18.434 2°59.635 -999 -999 -999 -999
2007-07-05 12:53:58 51°18.404 2°59.55 -999 -999 -999 -999
2007-07-05 12:54:58 51°18.375 2°59.466 -999 -999 -999 -999
2007-07-05 12:55:58 51°18.348 2°59.377 -999 -999 -999 -999
2007-07-05 12:56:58 51°18.318 2°59.297 -999 -999 -999 -999
2007-07-05 12:57:58 51°18.292 2°59.219 -999 -999 -999 -999
2007-07-05 12:58:58 51°18.266 2°59.142 -999 -999 -999 -999
2007-07-05 12:59:58 51°18.239 2°59.066 -999 -999 -999 -999
2007-07-05 13:00:58 51°18.215 2°58.98 -999 -999 -999 -999
2007-07-05 13:01:58 51°18.189 2°58.887 -999 -999 -999 -999
2007-07-05 13:02:58 51°18.163 2°58.795 -999 -999 -999 -999
2007-07-05 13:03:58 51°18.137 2°58.704 -999 -999 -999 -999
2007-07-05 13:04:58 51°18.108 2°58.617 -999 -999 -999 -999
2007-07-05 13:05:58 51°18.081 2°58.53 -999 -999 -999 -999
2007-07-05 13:06:58 51°18.055 2°58.447 -999 -999 -999 -999
2007-07-05 13:07:58 51°18.032 2°58.364 -999 -999 -999 -999
2007-07-05 13:08:58 51°18.007 2°58.281 -999 -999 -999 -999
2007-07-05 13:09:58 51°17.98 2°58.205 -999 -999 -999 -999
2007-07-05 13:10:58 51°17.955 2°58.122 -999 -999 -999 -999
2007-07-05 13:11:58 51°17.929 2°58.044 -999 -999 -999 -999
2007-07-05 13:12:58 51°17.904 2°57.967 -999 -999 -999 -999
2007-07-05 13:13:58 51°17.882 2°57.893 -999 -999 -999 -999
2007-07-05 13:14:58 51°17.86 2°57.817 -999 -999 -999 -999
2007-07-05 13:15:58 51°17.835 2°57.745 -999 -999 -999 -999
2007-07-05 13:16:58 51°17.809 2°57.673 -999 -999 -999 -999
2007-07-05 13:17:58 51°17.784 2°57.612 -999 -999 -999 -999
2007-07-05 13:18:58 51°17.76 2°57.552 -999 -999 -999 -999
2007-07-05 13:19:58 51°17.739 2°57.49 -999 -999 -999 -999
2007-07-05 13:20:58 51°17.718 2°57.429 -999 -999 -999 -999
2007-07-05 13:21:58 51°17.696 2°57.37 -999 -999 -999 -999
2007-07-05 13:22:58 51°17.674 2°57.311 -999 -999 -999 -999
2007-07-05 13:23:58 51°17.653 2°57.259 -999 -999 -999 -999
2007-07-05 13:24:58 51°17.633 2°57.208 -999 -999 -999 -999
2007-07-05 13:25:58 51°17.613 2°57.154 -999 -999 -999 -999
2007-07-05 13:26:58 51°17.592 2°57.099 -999 -999 -999 -999
2007-07-05 13:27:58 51°17.571 2°57.045 -999 -999 -999 -999
2007-07-05 13:28:58 51°17.552 2°56.989 -999 -999 -999 -999
2007-07-05 13:29:58 51°17.532 2°56.937 -999 -999 -999 -999
2007-07-05 13:30:58 51°17.512 2°56.882 -999 -999 -999 -999
2007-07-05 13:31:58 51°17.491 2°56.836 -999 -999 -999 -999
2007-07-05 13:32:58 51°17.471 2°56.795 -999 -999 -999 -999
2007-07-05 13:33:58 51°17.455 2°56.748 -999 -999 -999 -999
2007-07-05 13:34:58 51°17.436 2°56.698 -999 -999 -999 -999
2007-07-05 13:35:58 51°17.421 2°56.646 -999 -999 -999 -999
2007-07-05 13:36:58 51°17.405 2°56.595 -999 -999 -999 -999
2007-07-05 13:37:58 51°17.384 2°56.556 -999 -999 -999 -999
2007-07-05 13:38:58 51°17.369 2°56.514 -999 -999 -999 -999
2007-07-05 13:39:58 51°17.346 2°56.447 -999 -999 -999 -999
2007-07-05 13:40:58 51°17.317 2°56.342 -999 -999 -999 -999
2007-07-05 13:41:58 51°17.283 2°56.219 -999 -999 -999 -999
2007-07-05 13:42:58 51°17.24 2°56.093 -999 -999 -999 -999
2007-07-05 13:43:58 51°17.183 2°55.981 -999 -999 -999 -999
2007-07-05 13:44:58 51°17.129 2°55.879 -999 -999 -999 -999
2007-07-05 13:45:58 51°17.075 2°55.761 -999 -999 -999 -999
2007-07-05 13:46:58 51°17.006 2°55.608 -999 -999 -999 -999
2007-07-05 13:47:58 51°16.967 2°55.531 -999 -999 -999 -999
2007-07-05 13:48:58 51°16.94 2°55.496 -999 -999 -999 -999
2007-07-05 13:49:58 51°16.918 2°55.485 -999 -999 -999 -999
2007-07-05 13:50:58 51°16.897 2°55.485 -999 -999 -999 -999
2007-07-05 13:51:58 51°16.88 2°55.49 -999 -999 -999 -999
2007-07-05 13:52:58 51°16.866 2°55.498 -999 -999 -999 -999
2007-07-05 13:53:58 51°16.853 2°55.507 -999 -999 -999 -999
2007-07-05 13:54:58 51°16.841 2°55.526 -999 -999 -999 -999
2007-07-05 13:55:58 51°16.828 2°55.538 -999 -999 -999 -999
2007-07-05 13:56:58 51°16.817 2°55.547 -999 -999 -999 -999
2007-07-05 13:57:58 51°16.805 2°55.557 -999 -999 -999 -999
2007-07-05 13:58:58 51°16.798 2°55.564 -999 -999 -999 -999
2007-07-05 13:59:58 51°16.792 2°55.578 -999 -999 -999 -999
2007-07-05 14:00:58 51°16.786 2°55.593 -999 -999 -999 -999
2007-07-05 14:01:58 51°16.78 2°55.603 -999 -999 -999 -999
2007-07-05 14:02:58 51°16.772 2°55.617 -999 -999 -999 -999
2007-07-05 14:03:58 51°16.764 2°55.644 -999 -999 -999 -999
2007-07-05 14:04:58 51°16.756 2°55.681 -999 -999 -999 -999
2007-07-05 14:05:58 51°16.739 2°55.704 -999 -999 -999 -999
2007-07-05 14:06:58 51°16.733 2°55.704 -999 -999 -999 -999
2007-07-05 14:07:58 51°16.738 2°55.679 -999 -999 -999 -999
2007-07-05 14:08:58 51°16.741 2°55.647 -999 -999 -999 -999
2007-07-05 14:09:58 51°16.74 2°55.616 -999 -999 -999 -999
2007-07-05 14:10:58 51°16.739 2°55.586 -999 -999 -999 -999
2007-07-05 14:11:58 51°16.741 2°55.553 -999 -999 -999 -999
2007-07-05 14:12:58 51°16.745 2°55.526 -999 -999 -999 -999
2007-07-05 14:13:58 51°16.749 2°55.501 -999 -999 -999 -999
2007-07-05 14:14:58 51°16.753 2°55.475 -999 -999 -999 -999
2007-07-05 14:15:58 51°16.758 2°55.445 -999 -999 -999 -999
2007-07-05 14:16:58 51°16.762 2°55.423 -999 -999 -999 -999
2007-07-05 14:17:58 51°16.767 2°55.391 -999 -999 -999 -999
2007-07-05 14:18:58 51°16.772 2°55.362 -999 -999 -999 -999
2007-07-05 14:19:58 51°16.775 2°55.338 -999 -999 -999 -999
2007-07-05 14:20:58 51°16.779 2°55.315 -999 -999 -999 -999
2007-07-05 14:21:58 51°16.786 2°55.289 -999 -999 -999 -999
2007-07-05 14:22:58 51°16.794 2°55.275 -999 -999 -999 -999
2007-07-05 14:23:58 51°16.783 2°55.25 -999 -999 -999 -999
2007-07-05 14:24:58 51°16.75 2°55.225 -999 -999 -999 -999
2007-07-05 14:25:58 51°16.716 2°55.173 -999 -999 -999 -999
2007-07-05 14:26:58 51°16.664 2°55.123 -999 -999 -999 -999
2007-07-05 14:27:58 51°16.624 2°55.054 -999 -999 -999 -999
2007-07-05 14:28:58 51°16.587 2°54.985 -999 -999 -999 -999
2007-07-05 14:29:58 51°16.548 2°54.917 -999 -999 -999 -999
2007-07-05 14:30:58 51°16.509 2°54.847 -999 -999 -999 -999
2007-07-05 14:31:58 51°16.481 2°54.783 -999 -999 -999 -999
2007-07-05 14:32:58 51°16.452 2°54.736 -999 -999 -999 -999
2007-07-05 14:33:58 51°16.438 2°54.699 -999 -999 -999 -999
2007-07-05 14:34:58 51°16.419 2°54.663 -999 -999 -999 -999
2007-07-05 14:35:58 51°16.403 2°54.626 -999 -999 -999 -999
2007-07-05 14:36:58 51°16.379 2°54.595 -999 -999 -999 -999
2007-07-05 14:37:58 51°16.361 2°54.548 -999 -999 -999 -999
2007-07-05 14:38:58 51°16.339 2°54.517 -999 -999 -999 -999
2007-07-05 14:39:58 51°16.324 2°54.472 -999 -999 -999 -999
2007-07-05 14:40:58 51°16.302 2°54.43 -999 -999 -999 -999
2007-07-05 14:41:58 51°16.29 2°54.379 -999 -999 -999 -999
2007-07-05 14:42:58 51°16.264 2°54.347 -999 -999 -999 -999
2007-07-05 14:43:58 51°16.253 2°54.315 -999 -999 -999 -999
2007-07-05 14:44:58 51°16.253 2°54.275 -999 -999 -999 -999
2007-07-05 14:45:58 51°16.259 2°54.255 -999 -999 -999 -999
2007-07-05 14:46:58 51°16.266 2°54.265 -999 -999 -999 -999
2007-07-05 14:47:58 51°16.266 2°54.282 -999 -999 -999 -999
2007-07-05 14:48:58 51°16.26 2°54.263 -999 -999 -999 -999
2007-07-05 14:49:58 51°16.267 2°54.243 -999 -999 -999 -999
2007-07-05 14:50:58 51°16.285 2°54.264 -999 -999 -999 -999
2007-07-05 14:51:58 51°16.291 2°54.286 -999 -999 -999 -999
2007-07-05 14:52:58 51°16.285 2°54.291 -999 -999 -999 -999
2007-07-05 14:53:58 51°16.277 2°54.29 -999 -999 -999 -999
2007-07-05 14:54:58 51°16.286 2°54.296 -999 -999 -999 -999
2007-07-05 14:55:58 51°16.291 2°54.308 -999 -999 -999 -999
2007-07-05 14:56:58 51°16.287 2°54.323 -999 -999 -999 -999
2007-07-05 14:57:58 51°16.269 2°54.3 -999 -999 -999 -999
2007-07-05 14:58:58 51°16.268 2°54.291 -999 -999 -999 -999
2007-07-05 14:59:58 51°16.271 2°54.299 -999 -999 -999 -999
2007-07-05 15:00:58 51°16.288 2°54.33 -999 -999 -999 -999
2007-07-05 15:01:58 51°16.312 2°54.397 -999 -999 -999 -999
2007-07-05 15:02:58 51°16.346 2°54.451 -999 -999 -999 -999
2007-07-05 15:03:58 51°16.364 2°54.412 -999 -999 -999 -999
2007-07-05 15:04:58 51°16.325 2°54.374 -999 -999 -999 -999
2007-07-05 15:05:58 51°16.284 2°54.335 -999 -999 -999 -999
2007-07-05 15:06:58 51°16.274 2°54.299 -999 -999 -999 -999
2007-07-05 15:07:58 51°16.27 2°54.304 -999 -999 -999 -999
2007-07-05 15:08:58 51°16.269 2°54.307 -999 -999 -999 -999
2007-07-05 15:09:58 51°16.274 2°54.305 -999 -999 -999 -999
2007-07-05 15:10:58 51°16.286 2°54.3 -999 -999 -999 -999
2007-07-05 15:11:58 51°16.301 2°54.298 -999 -999 -999 -999
2007-07-05 15:12:58 51°16.313 2°54.296 -999 -999 -999 -999
2007-07-05 15:13:58 51°16.326 2°54.293 -999 -999 -999 -999
2007-07-05 15:14:58 51°16.343 2°54.286 -999 -999 -999 -999
2007-07-05 15:15:58 51°16.353 2°54.289 -999 -999 -999 -999
2007-07-05 15:16:58 51°16.344 2°54.298 -999 -999 -999 -999
2007-07-05 15:17:58 51°16.33 2°54.3 -999 -999 -999 -999
2007-07-05 15:18:58 51°16.325 2°54.285 -999 -999 -999 -999
2007-07-05 15:19:58 51°16.312 2°54.271 -999 -999 -999 -999
2007-07-05 15:20:58 51°16.305 2°54.257 -999 -999 -999 -999
2007-07-05 15:21:58 51°16.308 2°54.267 -999 -999 -999 -999
2007-07-05 15:22:58 51°16.313 2°54.274 -999 -999 -999 -999
2007-07-05 15:23:58 51°16.315 2°54.284 -999 -999 -999 -999
2007-07-05 15:24:58 51°16.315 2°54.303 -999 -999 -999 -999
2007-07-05 15:25:58 51°16.347 2°54.293 -999 -999 -999 -999
2007-07-05 15:26:58 51°16.432 2°54.406 -999 -999 -999 -999
2007-07-05 15:27:58 51°16.506 2°54.665 -999 -999 -999 -999
2007-07-05 15:28:58 51°16.565 2°54.863 -999 -999 -999 -999
2007-07-05 15:29:58 51°16.613 2°54.951 -999 -999 -999 -999
2007-07-05 15:30:58 51°16.663 2°55.078 -999 -999 -999 -999
2007-07-05 15:31:58 51°16.648 2°55.205 -999 -999 -999 -999
2007-07-05 15:32:59 51°16.668 2°55.27 -999 -999 -999 -999
2007-07-05 15:33:58 51°16.637 2°55.279 -999 -999 -999 -999
2007-07-05 15:34:58 51°16.657 2°55.267 -999 -999 -999 -999
2007-07-05 15:35:58 51°16.712 2°55.299 -999 -999 -999 -999
2007-07-05 15:36:58 51°16.735 2°55.364 -999 -999 -999 -999
2007-07-05 15:37:58 51°16.801 2°55.452 -999 -999 -999 -999
2007-07-05 15:38:58 51°16.796 2°55.623 -999 -999 -999 -999
2007-07-05 15:39:58 51°16.696 2°55.647 -999 -999 -999 -999
2007-07-05 15:40:58 51°16.533 2°55.597 -999 -999 -999 -999
2007-07-05 15:41:58 51°16.357 2°55.538 -999 -999 -999 -999
2007-07-05 15:42:58 51°16.178 2°55.479 -999 -999 -999 -999
2007-07-05 15:43:58 51°15.998 2°55.418 -999 -999 -999 -999
2007-07-05 15:44:58 51°15.82 2°55.344 -999 -999 -999 -999
2007-07-05 15:45:58 51°15.651 2°55.251 -999 -999 -999 -999
2007-07-05 15:46:58 51°15.481 2°55.151 -999 -999 -999 -999
2007-07-05 15:47:58 51°15.307 2°55.058 -999 -999 -999 -999
2007-07-05 15:48:59 51°15.129 2°54.983 -999 -999 -999 -999
2007-07-05 15:49:58 51°14.955 2°54.928 -999 -999 -999 -999
2007-07-05 15:50:59 51°14.769 2°54.891 -999 -999 -999 -999
2007-07-05 15:51:58 51°14.583 2°54.906 -999 -999 -999 -999
2007-07-05 15:52:58 51°14.401 2°55.041 -999 -999 -999 -999
2007-07-05 15:53:58 51°14.257 2°55.28 -999 -999 -999 -999
2007-07-05 15:54:58 51°14.106 2°55.425 -999 -999 -999 -999
2007-07-05 15:55:59 51°13.991 2°55.508 -999 -999 -999 -999
2007-07-05 15:56:58 51°13.868 2°55.598 -999 -999 -999 -999
2007-07-05 15:57:58 51°13.757 2°55.708 -999 -999 -999 -999
2007-07-05 15:58:59 51°13.686 2°55.832 -999 -999 -999 -999
2007-07-05 15:59:59 51°13.639 2°55.941 -999 -999 -999 -999
2007-07-05 16:00:59 51°13.61 2°56.032 -999 -999 -999 -999
2007-07-05 16:01:59 51°13.599 2°56.084 -999 -999 -999 -999
2007-07-05 16:02:59 51°13.599 2°56.086 -999 -999 -999 -999
2007-07-05 16:03:58 51°13.598 2°56.093 -999 -999 -999 -999